User: anonymous   Login
Location: Sungai Bunut
(2.6333°N, 113.7333°E)
Time: 07:57:51
(UTC+00:00)
Language:

Cosmos 2181 Rocket - Orbit

View from above orbital plane
View from above orbital plane
View from above satellite
View from above satellite

Ground track
Ground track

The orbit data is extracted from the following two-line orbital elements,

1 21903U 92012B   22023.94335583  .00000115  00000-0  10427-3 0  9992
2 21903  82.9368  17.9366 0044226  85.2581 333.6134 13.74527206498339
Epoch (UTC): 23 January 2022 22:38:25
Eccentricity: 0.0044226
inclination: 82.9368°
perigee height: 951 km
apogee height: 1016 km
right ascension of ascending node: 17.9366°
argument of perigee: 85.2581°
revolutions per day: 13.74527206
mean anomaly at epoch: 333.6134°
orbit number at epoch: 49833

The dashed part of the orbit path shows where the satellite is in the earth's shadow,  

DLR